Location: Grange Verzio
(44.5000°N, 6.9833°E)
Time: 05:23:32
(UTC+00:00)

Cosmos 2219 Rocket - Pass Details

Date: 01 February 2023
Orbit: 826 x 848 km, 71.0° (Epoch: 21 March)

Event Time Altitude Azimuth Distance (km) Brightness Sun altitude
Rises 18:35:51 0° 179° (S) 3,349 5.4 -20.7°
Reaches altitude 10° 18:38:25 10° 172° (S) 2,421 4.5 -21.1°
Enters shadow 18:42:08 33° 136° (SE) 1,372 2.9 -21.8°
